Location: Johnson City
(36.3130°N, 82.3540°W)
Time: 17:13:44
(UTC-05:00)

X-37B - Pass Details

Date: 05 December 2021
Orbit: 334 x 337 km, 45.0° (Epoch: 11 January)

Event Time Altitude Azimuth Distance (km) Brightness Sun altitude
Rises 19:11:28 0° 250° (WSW) 2,092 5.7 -23.0°
Reaches altitude 10° 19:13:30 10° 255° (WSW) 1,259 4.3 -23.4°
Enters shadow 19:14:52 24° 267° (W) 733 2.7 -23.7°
